User: anonymous   Login
Location: Unspecified
(0.0000°N, 0.0000°E)
Time: 18:04:36
(UTC+00:00)
Language:

GALILEO 12 (269) - Orbit

View from above orbital plane
View from above orbital plane
View from above satellite
View from above satellite

Ground track
Ground track

The orbit data is extracted from the following two-line orbital elements,

1 41174U 15079A   21024.29183904  .00000024  00000-0  00000+0 0  9999
2 41174  55.0330 155.4031 0002851 323.7064  36.2290  1.70473671 31771
Epoch (UTC): 24 January 2021 07:00:14
Eccentricity: 0.0002851
inclination: 55.0330°
perigee height: 23213 km
apogee height: 23230 km
right ascension of ascending node: 155.4031°
argument of perigee: 323.7064°
revolutions per day: 1.70473671
mean anomaly at epoch: 36.2290°
orbit number at epoch: 3177

The dashed part of the orbit path shows where the satellite is in the earth's shadow,  

DLR